Date,TemperatureHighF,TemperatureAvgF,TemperatureLowF,DewpointHighF,DewpointAvgF,DewpointLowF,HumidityHigh,HumidityAvg,HumidityLow,PressureMaxIn,PressureMinIn,WindSpeedMaxMPH,WindSpeedAvgMPH,GustSpeedMaxMPH,PrecipitationSumIn
2013-6-1,62,59,53,52,50,49,90,73,65,29.80,29.65,22,-539,24,0.00
2013-6-2,62,59,51,52,50,41,95,75,67,29.66,29.56,20,-748,20,0.00
2013-6-3,52,52,52,50,50,50,95,94,94,29.60,29.59,13,6,18,0.00
2013-6-4,61,56,53,54,52,44,94,89,71,29.84,29.72,19,-17,19,0.00
2013-6-5,60,54,52,53,51,50,94,89,71,29.87,29.81,17,-57,20,0.00
2013-6-6,61,53,51,53,51,50,97,92,73,29.83,29.74,19,-38,19,0.00
2013-6-7,62,58,52,54,52,46,96,81,73,29.77,29.61,14,-634,16,0.00
2013-6-8,62,54,51,53,52,50,97,93,73,29.63,29.60,12,-78,14,0.00
2013-6-9,57,56,55,55,54,54,97,96,95,29.75,29.72,17,5,17,0.00
2013-6-10,63,57,54,56,54,53,98,89,75,29.82,29.67,20,-41,22,0.00
2013-6-11,64,62,54,56,54,52,93,75,70,29.86,29.76,8,-931,9,0.00
2013-6-12,64,62,52,55,53,43,92,73,68,29.86,29.77,11,-898,12,0.00
2013-6-13,66,62,56,53,51,50,81,69,62,29.97,29.86,16,-703,20,0.00
2013-6-14,64,62,52,56,52,50,91,70,67,29.86,29.80,12,-740,12,0.00
2013-6-15,55,53,52,52,51,50,94,92,89,29.87,29.82,22,6,22,0.00
2013-6-16,60,54,51,54,51,49,95,89,81,29.97,29.86,20,6,22,0.00
2013-6-17,63,57,51,56,53,50,97,88,75,29.96,29.90,20,-317,20,0.00
2013-6-18,61,57,53,54,53,50,97,87,74,29.92,29.86,17,-305,22,0.00
2013-6-19,62,57,52,54,51,49,95,82,68,29.93,29.86,23,6,24,0.00
2013-6-21,60,56,51,54,52,49,95,85,74,29.87,29.79,18,6,21,0.00
2013-6-22,63,56,51,56,52,49,96,86,74,29.81,29.72,21,6,23,0.00
2013-6-23,60,56,53,59,55,52,99,98,96,29.76,29.68,17,6,18,0.02
2013-6-24,58,55,53,57,55,53,99,99,97,29.77,29.66,10,2,11,0.02
2013-6-25,67,60,57,64,60,56,99,98,88,29.85,29.74,21,4,25,0.24
2013-6-26,65,62,59,61,60,58,96,92,86,29.91,29.86,12,4,12,0.04
2013-6-27,68,60,55,61,58,54,99,92,77,29.96,29.88,13,3,14,0.00
2013-6-28,63,60,56,59,57,55,98,91,82,29.90,29.77,17,5,17,0.00
2013-6-29,67,62,57,59,57,55,92,84,74,29.78,29.67,21,7,23,0.00
2013-6-30,62,59,56,58,56,54,95,90,85,29.72,29.63,20,9,20,0.00